Cleveland, OH

6:36 PM EST on February 09, 2016 (GMT -0500)
Burke Lakefront

Weather History for KBKL - April, 2013

Change the Weather History Date:

Sunday, April 7, 2013

  Actual Average (KCLE) Record (KCLE)
Temperature  
Mean Temperature 54 °F 47 °F  
Max Temperature 69 °F 56 °F 83 °F (1929)
Min Temperature 41 °F 38 °F 17 °F (1982)
Degree Days  
Heating Degree Days 10 19  
Month to date heating degree days 139  
Since 1 July heating degree days 5182  
Cooling Degree Days 0 0  
Month to date cooling degree days 0  
Year to date cooling degree days 1  
Growing Degree Days 4 (Base 50)    
Moisture  
Dew Point 34 °F    
Average Humidity 52    
Maximum Humidity 86    
Minimum Humidity 18    
Precipitation  
Precipitation 0.00 in 0.13 in 0.68 in (1957)
Month to date precipitation 0.84  
Year to date precipitation 8.83  
Snow  
Snow 0.00 in 0.20 in - ()
Month to date snowfall 1.5  
Since 1 July snowfall 66.3  
Snow Depth -    
Sea Level Pressure  
Sea Level Pressure 29.86 in    
Wind  
Wind Speed 15 mph (SW)    
Max Wind Speed 29 mph    
Max Gust Speed 40 mph    
Visibility 10 miles    
Events      
T = Trace of Precipitation, MM = Missing Value Source: NWS Daily Summary

Daily Weather History Graph

Daily Weather History Graph

Search for Another Location

Airport or City:

Trip Planner

Search our weather history database for the weather conditions in past years. The results will help you decide how hot, cold, wet, or windy it might be!

Date:

Astronomy

Apr. 07, 2013 Rise Set
Actual Time 6:59 AM EDT 7:58 PM EDT
Civil Twilight 6:31 AM EDT 8:27 PM EDT
Nautical Twilight 5:57 AM EDT 9:00 PM EDT
Astronomical Twilight 5:22 AM EDT 9:36 PM EDT
Moon 5:18 AM EDT (4/7) 5:27 PM EDT (4/7)
Length of Visible Light 13h 55m
Length of Day
12h 59m
Waning Crescent, 8% of the Moon is Illuminated
Apr 7
Waning Crescent
Apr 10
New
Apr 18
First Quarter
Apr 25
Full
May 2
Last Quarter

Hourly Weather History & Observations

Time (EDT) Temp. Windchill Dew Point Humidity Pressure Visibility Wind Dir Wind Speed Gust Speed Precip Events Conditions
12:53 AM 55.0 °F - 12.0 °F 18% 29.86 in 10.0 mi SSE 15.0 mph 25.3 mph N/A   Clear
1:53 AM 55.0 °F - 12.0 °F 18% 29.83 in 10.0 mi SSE 18.4 mph 27.6 mph N/A   Clear
2:53 AM 55.9 °F - 12.9 °F 18% 29.80 in 10.0 mi SSE 18.4 mph 27.6 mph N/A   Clear
3:53 AM 60.1 °F - 21.9 °F 23% 29.77 in 10.0 mi South 19.6 mph 29.9 mph N/A   Partly Cloudy
4:53 AM 60.1 °F - 26.1 °F 27% 29.75 in 9.0 mi SSW 25.3 mph 34.5 mph N/A   Mostly Cloudy
5:53 AM 60.1 °F - 28.9 °F 31% 29.74 in 10.0 mi South 19.6 mph 29.9 mph N/A   Partly Cloudy
6:53 AM 59.0 °F - 32.0 °F 36% 29.74 in 10.0 mi South 17.3 mph 28.8 mph N/A   Overcast
7:53 AM 59.0 °F - 33.1 °F 38% 29.75 in 10.0 mi South 19.6 mph 27.6 mph N/A   Partly Cloudy
8:53 AM 61.0 °F - 36.0 °F 39% 29.75 in 10.0 mi South 16.1 mph 25.3 mph N/A   Partly Cloudy
9:53 AM 64.0 °F - 41.0 °F 43% 29.75 in 9.0 mi SW 23.0 mph 40.3 mph N/A   Clear
10:53 AM 62.1 °F - 41.0 °F 46% 29.77 in 10.0 mi WSW 27.6 mph 33.4 mph N/A   Clear
11:53 AM 68.0 °F - 42.1 °F 39% 29.78 in 10.0 mi SW 28.8 mph 35.7 mph N/A   Clear
12:53 PM 51.1 °F - 41.0 °F 68% 29.82 in 10.0 mi WNW 13.8 mph - N/A   Partly Cloudy
1:53 PM 51.1 °F - 42.1 °F 71% 29.85 in 10.0 mi WSW 10.4 mph - N/A   Clear
2:53 PM 48.9 °F - 41.0 °F 74% 29.88 in 7.0 mi West 5.8 mph - N/A   Clear
3:53 PM 50.0 °F - 39.9 °F 68% 29.90 in 9.0 mi West 6.9 mph - N/A   Clear
4:53 PM 50.0 °F - 39.9 °F 68% 29.92 in 10.0 mi WSW 8.1 mph - N/A   Clear
5:53 PM 50.0 °F - 39.0 °F 66% 29.94 in 10.0 mi WSW 6.9 mph - N/A   Clear
6:53 PM 48.9 °F - 37.9 °F 66% 29.96 in 10.0 mi WSW 4.6 mph - N/A   Clear
7:53 PM 46.9 °F - 37.0 °F 68% 29.99 in 10.0 mi Calm Calm - N/A   Clear
8:53 PM 45.0 °F - 37.0 °F 74% 30.00 in 10.0 mi Calm Calm - N/A   Clear
9:53 PM 43.0 °F - 37.0 °F 80% 30.01 in 10.0 mi Calm Calm - N/A   Clear
10:53 PM 41.0 °F - 37.0 °F 86% 30.02 in 8.0 mi Calm Calm - N/A   Clear
11:53 PM 42.1 °F 38.4 °F 37.0 °F 82% 30.03 in 8.0 mi NE 5.8 mph - N/A   Clear